• In Netherlands
  • List of Countries
  • For 7 days
  • Water Temperature
  • Satellite Maps
  • Weather Map
  • Weather Widgets
  • user-avatar
    Login

    Hourly Weather Brussels

    Today, 23 January, Tuesday

    Time Temperature Precipitation Wind Pressure Humidity
    00:00 +5°C° 0 mm 3 mps 762 mmHg 87%
    01:00 +5°C° 0 mm 3 mps 762 mmHg 86%
    02:00 +5°C° 0 mm 3 mps 762 mmHg 86%
    03:00 +5°C° 0 mm 3 mps 762 mmHg 86%
    04:00 +5°C° 0 mm 3 mps 762 mmHg 87%
    05:00 +5°C° 0 mm 4 mps 762 mmHg 88%
    06:00 +5°C° 0 mm 4 mps 762 mmHg 89%
    07:00 +5°C° 0 mm 4 mps 762 mmHg 89%
    08:00 +5°C° 0 mm 5 mps 762 mmHg 89%
    09:00 +5°C° 0 mm 5 mps 762 mmHg 89%
    10:00 +5°C° 0 mm 6 mps 762 mmHg 85%
    11:00 +6°C° 0 mm 7 mps 762 mmHg 81%
    12:00 +8°C° 0 mm 7 mps 762 mmHg 78%
    13:00 +8°C° 0.1 mm 7 mps 761 mmHg 80%
    14:00 +8°C° 0.1 mm 7 mps 761 mmHg 83%
    15:00 +8°C° 0.1 mm 7 mps 761 mmHg 86%
    16:00 +9°C° 0.1 mm 7 mps 761 mmHg 87%
    17:00 +9°C° 0.1 mm 7 mps 761 mmHg 88%
    18:00 +9°C° 0.1 mm 7 mps 761 mmHg 89%
    19:00 +9°C° 0.1 mm 7 mps 761 mmHg 90%
    20:00 +10°C° 0.1 mm 7 mps 761 mmHg 90%
    21:00 +10°C° 0.1 mm 6 mps 761 mmHg 91%
    22:00 +10°C° 0.1 mm 6 mps 761 mmHg 91%
    23:00 +10°C° 0.1 mm 6 mps 761 mmHg 91%

    Tomorrow, 24 January, Wednesday

    Time Temperature Precipitation Wind Pressure Humidity
    00:00 +10°C° 0.1 mm 6 mps 761 mmHg 92%
    01:00 +10°C° 0.1 mm 6 mps 761 mmHg 92%
    02:00 +10°C° 0.1 mm 6 mps 760 mmHg 92%
    03:00 +10°C° 0.1 mm 6 mps 760 mmHg 92%
    04:00 +10°C° 0 mm 7 mps 760 mmHg 91%
    05:00 +10°C° 0 mm 7 mps 759 mmHg 91%
    06:00 +10°C° 0 mm 7 mps 759 mmHg 90%
    07:00 +11°C° 0 mm 8 mps 759 mmHg 89%
    08:00 +11°C° 0 mm 8 mps 758 mmHg 88%
    09:00 +11°C° 0 mm 9 mps 758 mmHg 87%
    10:00 +11°C° 0 mm 9 mps 757 mmHg 85%
    11:00 +11°C° 0 mm 10 mps 757 mmHg 83%
    12:00 +12°C° 0 mm 11 mps 756 mmHg 81%
    13:00 +12°C° 0 mm 11 mps 756 mmHg 80%
    14:00 +11°C° 0 mm 10 mps 755 mmHg 80%
    15:00 +11°C° 0 mm 10 mps 755 mmHg 79%
    16:00 +11°C° 0.1 mm 10 mps 755 mmHg 78%
    17:00 +11°C° 0.1 mm 10 mps 754 mmHg 78%
    18:00 +11°C° 0.1 mm 10 mps 754 mmHg 77%
    19:00 +10°C° 0.6 mm 9 mps 754 mmHg 79%
    20:00 +10°C° 0.6 mm 8 mps 754 mmHg 81%
    21:00 +10°C° 0.6 mm 8 mps 754 mmHg 83%
    22:00 +9°C° 0.8 mm 7 mps 755 mmHg 84%
    23:00 +8°C° 0.8 mm 6 mps 755 mmHg 85%

    Day after tomorrow, 25 January, Thursday

    Time Temperature Precipitation Wind Pressure Humidity
    00:00 +8°C° 0.8 mm 5 mps 755 mmHg 86%
    01:00 +7°C° 0.5 mm 5 mps 755 mmHg 86%
    02:00 +7°C° 0.5 mm 5 mps 755 mmHg 86%
    03:00 +7°C° 0.5 mm 5 mps 755 mmHg 86%
    04:00 +7°C° 0.3 mm 5 mps 755 mmHg 86%
    05:00 +6°C° 0.3 mm 5 mps 755 mmHg 86%
    06:00 +6°C° 0.3 mm 5 mps 755 mmHg 86%
    07:00 +6°C° 0.2 mm 5 mps 755 mmHg 85%
    08:00 +6°C° 0.2 mm 5 mps 755 mmHg 85%
    09:00 +6°C° 0.2 mm 5 mps 755 mmHg 85%
    10:00 +7°C° 0 mm 5 mps 755 mmHg 82%
    11:00 +7°C° 0 mm 6 mps 755 mmHg 80%
    12:00 +7°C° 0 mm 6 mps 755 mmHg 78%
    13:00 +7°C° 0 mm 5 mps 755 mmHg 77%
    14:00 +7°C° 0 mm 5 mps 755 mmHg 77%
    15:00 +7°C° 0 mm 4 mps 755 mmHg 77%
    16:00 +7°C° 0 mm 4 mps 755 mmHg 79%
    17:00 +6°C° 0 mm 4 mps 755 mmHg 81%
    18:00 +6°C° 0 mm 4 mps 755 mmHg 84%
    19:00 +5°C° 0 mm 4 mps 756 mmHg 84%
    20:00 +5°C° 0 mm 4 mps 756 mmHg 85%
    21:00 +5°C° 0 mm 4 mps 756 mmHg 86%
    22:00 +4°C° 0 mm 4 mps 756 mmHg 87%
    23:00 +4°C° 0 mm 4 mps 756 mmHg 88%

    26 January, Friday

    Time Temperature Precipitation Wind Pressure Humidity
    00:00 +4°C° 0 mm 4 mps 756 mmHg 89%
    01:00 +3°C° 0 mm 4 mps 756 mmHg 89%
    02:00 +2°C° 0 mm 5 mps 757 mmHg 88%
    03:00 +2°C° 0 mm 5 mps 757 mmHg 88%
    04:00 +2°C° 0.1 mm 5 mps 757 mmHg 88%
    05:00 +2°C° 0.1 mm 5 mps 757 mmHg 89%
    06:00 +3°C° 0.1 mm 4 mps 757 mmHg 89%
    07:00 +3°C° 0 mm 4 mps 758 mmHg 89%
    08:00 +3°C° 0 mm 4 mps 758 mmHg 89%
    09:00 +3°C° 0 mm 4 mps 759 mmHg 88%
    10:00 +4°C° 0 mm 4 mps 759 mmHg 85%
    11:00 +5°C° 0 mm 4 mps 759 mmHg 81%
    12:00 +6°C° 0 mm 4 mps 760 mmHg 77%
    13:00 +7°C° 0 mm 3 mps 760 mmHg 76%
    14:00 +7°C° 0 mm 3 mps 760 mmHg 75%
    15:00 +7°C° 0 mm 3 mps 761 mmHg 74%
    16:00 +5°C° 0 mm 3 mps 761 mmHg 79%
    17:00 +5°C° 0 mm 2 mps 762 mmHg 83%
    18:00 +4°C° 0 mm 2 mps 763 mmHg 88%
    19:00 +4°C° 0 mm 2 mps 763 mmHg 89%
    20:00 +4°C° 0 mm 2 mps 764 mmHg 91%
    21:00 +3°C° 0 mm 2 mps 764 mmHg 92%
    22:00 +3°C° 0 mm 2 mps 765 mmHg 92%
    23:00 +3°C° 0 mm 2 mps 765 mmHg 93%

    27 January, Saturday

    Time Temperature Precipitation Wind Pressure Humidity
    00:00 +3°C° 0 mm 2 mps 765 mmHg 93%
    01:00 +3°C° 0 mm 1 mps 765 mmHg 93%
    02:00 +3°C° 0 mm 1 mps 766 mmHg 94%
    03:00 +3°C° 0 mm 1 mps 766 mmHg 94%
    04:00 +3°C° 0 mm 1 mps 766 mmHg 94%
    05:00 +3°C° 0 mm 1 mps 766 mmHg 94%
    06:00 +3°C° 0 mm 1 mps 766 mmHg 94%
    07:00 +2°C° 0 mm 2 mps 767 mmHg 93%
    08:00 +2°C° 0 mm 2 mps 767 mmHg 92%
    09:00 +3°C° 0 mm 2 mps 768 mmHg 91%
    10:00 +4°C° 0 mm 2 mps 768 mmHg 85%
    11:00 +5°C° 0 mm 2 mps 768 mmHg 80%
    12:00 +5°C° 0 mm 3 mps 769 mmHg 75%
    13:00 +7°C° 0 mm 3 mps 769 mmHg 75%
    14:00 +7°C° 0 mm 2 mps 768 mmHg 75%
    15:00 +7°C° 0 mm 2 mps 768 mmHg 74%
    16:00 +5°C° 0 mm 3 mps 769 mmHg 79%
    17:00 +4°C° 0 mm 3 mps 769 mmHg 83%
    18:00 +3°C° 0 mm 3 mps 769 mmHg 88%
    19:00 +3°C° 0 mm 3 mps 769 mmHg 88%
    20:00 +1°C° 0 mm 4 mps 769 mmHg 88%
    21:00 +1°C° 0 mm 4 mps 770 mmHg 88%
    22:00 +2°C° 0 mm 5 mps 770 mmHg 85%
    23:00 +2°C° 0 mm 5 mps 769 mmHg 83%

    28 January, Sunday

    Time Temperature Precipitation Wind Pressure Humidity
    00:00 +2°C° 0 mm 6 mps 769 mmHg 81%
    01:00 +2°C° 0.1 mm 6 mps 769 mmHg 81%
    02:00 +3°C° 0.1 mm 6 mps 769 mmHg 82%
    03:00 +3°C° 0.1 mm 6 mps 769 mmHg 82%
    04:00 +3°C° 0.3 mm 6 mps 769 mmHg 84%
    05:00 +3°C° 0.3 mm 6 mps 769 mmHg 86%
    06:00 +3°C° 0.3 mm 6 mps 769 mmHg 88%
    07:00 +4°C° 0.1 mm 6 mps 770 mmHg 89%
    08:00 +5°C° 0.1 mm 5 mps 770 mmHg 90%
    09:00 +5°C° 0.1 mm 5 mps 770 mmHg 91%
    10:00 +6°C° 0 mm 5 mps 771 mmHg 91%
    11:00 +7°C° 0 mm 5 mps 771 mmHg 91%
    12:00 +7°C° 0 mm 5 mps 771 mmHg 91%
    13:00 +8°C° 0 mm 4 mps 771 mmHg 91%
    14:00 +8°C° 0 mm 4 mps 771 mmHg 92%
    15:00 +8°C° 0 mm 4 mps 771 mmHg 93%
    16:00 +8°C° 0 mm 4 mps 771 mmHg 93%
    17:00 +8°C° 0 mm 4 mps 771 mmHg 94%
    18:00 +8°C° 0 mm 4 mps 771 mmHg 95%
    19:00 +8°C° 0 mm 4 mps 772 mmHg 95%
    20:00 +8°C° 0 mm 4 mps 772 mmHg 96%
    21:00 +9°C° 0 mm 3 mps 772 mmHg 96%
    22:00 +9°C° 0 mm 3 mps 772 mmHg 96%
    23:00 +9°C° 0 mm 3 mps 772 mmHg 96%
    Show more